Powrót do katalogu

CZ-4B R/B

AktywnySSO
NORAD 33410·ROCKET BODY·🇨🇳 China

Wystrzelony Oct 25, 2008 z Taiyuan Satellite Launch Center

Loading…

Następne Przeloty (najbliższe 24 godziny)

TLE

ŚwieżeSource: Space-Track

Epoka: Sep 14, 2026, 11:00 UTC

1 33410U 08053C   26257.45893888  .00003907  00000-0  15480-3 0  9992
2 33410  97.7706 328.5018 0082037 306.3894  52.9793 15.22977877978216

Śledź CZ-4B R/B w czasie rzeczywistym z AllMySat

Download on the App Store